Tracking 19969 objects as of 12-Nov-2019
Live streaming from Space Station
objects crossing your sky now
Track the group of recently launched Starlink satellites

SCOUT G-1 R/B

Track SCOUT G-1 R/B now!
10-day predictions


NORAD ID: 18363
Int'l Code: 1987-080C
Perigee: 1,022.6 km
Apogee: 1,181.9 km
Inclination: 90.3 °
Period: 107.2 minutes
Semi major axis: 7473 km
RCS: 0.8872 m2 (medium)
Launch date: September 16, 1987
Source: United States (US)
Launch site: AIR FORCE WESTERN TEST RANGE (AFWTR)

Note: This is a ROCKET BODY
aabbcc
Your satellite tracking list
Your tracking list is empty




NASA's NSSDC Master Catalog

Two Line Element Set (TLE):
1 18363U 87080C   19315.76657524  .00000052  00000-0  70940-4 0  9996
2 18363  90.3193   4.0091 0106575 140.0083 348.6474 13.43810382576470
Source of the keplerian elements: AFSPC